星链-11268 (STARLINK-11268)

导读

STARLINK-11268是美国太空探索技术公司(SpaceX)于2024年9月13日发射的星链低轨互联网通信卫星,归属星链Gen2星座部署序列。作为全球规模最大低轨卫星互联网星座的组成部分,它依托低轨轨道优势提供低时延宽带服务,可覆盖地面用户,支持民用通信与应急保障等多元场景,助力星链全球互联网接入网络的进一步完善。

基本信息
目录编号:
61055
目录名称:
STARLINK-11268
国际标识:
2024-164F
轨道中心:
EARTH
卫星名称:
星链-11268
卫星全名:
星链-11268 (STARLINK-11268)
卫星状态:
在轨 (已飞行639 天)
发射日期:
2024-09-13 UTC
国别 :
美国 (US)
星等 :
--
轨道信息
数据来源 国际轨道数据 AOE轨道数据
星历时间 2026-06-13T17:24:26+0800
1天前
查看轨道信息
2026-06-13T02:00:00+0800
1天前
查看轨道信息
半长轴 6737.904km 6737.779km
偏心率 0.000116 0.0002392
轨道倾角 53.159° 53.159°
近地点辐角 82.225° 44.145°
升交点赤经 199.224° 202.395°
平近点角 277.890° 286.305°
近地点 358.985km 358.03km
远地点 360.549km 361.254km
周期 91.737分钟 91.735分钟
每日圈数 15.696962 15.697397
详细信息
固有亮度:
5
最大亮度:
2.5
卫星平台:
Starlink V1.0
覆盖范围:
全球
运营商:
太空探索技术公司
运营商所在国:
美国
制造商(研发单位):
太空探索技术公司
制造商所在国:
美国
使用方式:
暂无
卫星简介
Starlink 计划是 SpaceX 推出的全球卫星互联网项目,通过发射低轨道卫星,为全球尤其是偏远地区提供高速、低延迟的互联网服务。自 2019 年起,Starlink 已部署数千颗卫星,旨在缩小全球数字鸿沟,推动互联网普及。该项目还为军事、航空等行业提供通信支持,带来广泛经济效益。
2D轨道图
3D轨道图
轨道高度分析图
轨道倾角分析图
轨道综合分析图
查看轨道综合分析图